date,time,SUV Intensity [MED/Hr],UV Index,Daily total [MED],Since Last [MED]
27/08/2022,00:12:09,0.000,0.0,0.0,0.0
27/08/2022,00:13:09,0.000,0.0,0.0,0.0
27/08/2022,00:14:10,0.000,0.0,0.0,0.0
27/08/2022,00:15:09,0.000,0.0,0.0,0.0
27/08/2022,00:16:09,0.000,0.0,0.0,0.0
27/08/2022,00:17:09,0.000,0.0,0.0,0.0
27/08/2022,00:18:09,0.000,0.0,0.0,0.0
27/08/2022,00:19:09,0.001,0.0,0.0,0.0
27/08/2022,00:20:09,0.000,0.0,0.0,0.0
27/08/2022,00:21:17,0.000,0.0,0.0,0.0
27/08/2022,00:22:08,0.000,0.0,0.0,0.0
27/08/2022,00:23:17,0.000,0.0,0.0,0.0
27/08/2022,00:24:09,0.000,0.0,0.0,0.0
27/08/2022,00:25:08,0.000,0.0,0.0,0.0
27/08/2022,00:26:23,0.000,0.0,0.0,0.0
27/08/2022,00:28:12,0.000,0.0,0.0,0.0
27/08/2022,00:29:08,0.000,0.0,0.0,0.0
27/08/2022,00:30:09,0.000,0.0,0.0,0.0
27/08/2022,00:31:08,0.000,0.0,0.0,0.0
27/08/2022,00:32:09,0.000,0.0,0.0,0.0
27/08/2022,00:33:09,0.000,0.0,0.0,0.0
27/08/2022,00:34:09,0.000,0.0,0.0,0.0
27/08/2022,00:35:09,0.000,0.0,0.0,0.0
27/08/2022,00:36:09,0.000,0.0,0.0,0.0
27/08/2022,00:37:09,0.000,0.0,0.0,0.0
27/08/2022,00:38:09,-0.001,0.0,0.0,0.0
27/08/2022,00:39:09,0.000,0.0,0.0,0.0
27/08/2022,00:40:09,0.000,0.0,0.0,0.0
27/08/2022,00:41:08,0.000,0.0,0.0,0.0
27/08/2022,00:42:09,0.000,0.0,0.0,0.0
27/08/2022,00:43:09,0.000,0.0,0.0,0.0
27/08/2022,00:44:09,0.000,0.0,0.0,0.0
27/08/2022,00:45:09,0.000,0.0,0.0,0.0
27/08/2022,00:46:09,0.000,0.0,0.0,0.0
27/08/2022,00:47:17,0.000,0.0,0.0,0.0
27/08/2022,00:48:09,0.000,0.0,0.0,0.0
27/08/2022,00:49:09,0.000,0.0,0.0,0.0
27/08/2022,00:50:17,0.000,0.0,0.0,0.0
27/08/2022,00:51:09,0.001,0.0,0.0,0.0
27/08/2022,00:52:09,0.000,0.0,0.0,0.0
27/08/2022,00:53:08,0.000,0.0,0.0,0.0
27/08/2022,00:54:09,0.001,0.0,0.0,0.0
27/08/2022,00:55:09,0.000,0.0,0.0,0.0
27/08/2022,00:56:09,0.000,0.0,0.0,0.0
27/08/2022,00:57:08,0.000,0.0,0.0,0.0
27/08/2022,00:58:09,0.001,0.0,0.0,0.0
27/08/2022,00:59:10,0.001,0.0,0.0,0.0
27/08/2022,01:00:09,0.000,0.0,0.0,0.0
27/08/2022,01:01:09,0.000,0.0,0.0,0.0
27/08/2022,01:02:09,0.000,0.0,0.0,0.0
27/08/2022,01:03:09,0.000,0.0,0.0,0.0
27/08/2022,01:04:09,0.000,0.0,0.0,0.0
27/08/2022,01:05:17,0.000,0.0,0.0,0.0
27/08/2022,01:06:09,0.000,0.0,0.0,0.0
27/08/2022,01:07:09,0.000,0.0,0.0,0.0
27/08/2022,01:08:18,0.000,0.0,0.0,0.0
27/08/2022,01:09:09,0.000,0.0,0.0,0.0
27/08/2022,01:10:09,0.000,0.0,0.0,0.0
27/08/2022,01:11:17,0.000,0.0,0.0,0.0
27/08/2022,01:12:09,0.000,0.0,0.0,0.0
27/08/2022,01:13:09,0.001,0.0,0.0,0.0
27/08/2022,01:14:08,0.000,0.0,0.0,0.0
27/08/2022,01:15:09,0.000,0.0,0.0,0.0
27/08/2022,01:16:08,0.001,0.0,0.0,0.0
27/08/2022,01:17:09,0.001,0.0,0.0,0.0
27/08/2022,01:18:09,0.000,0.0,0.0,0.0
27/08/2022,01:19:09,0.001,0.0,0.0,0.0
27/08/2022,01:20:09,0.000,0.0,0.0,0.0
27/08/2022,01:21:08,0.000,0.0,0.0,0.0
27/08/2022,01:22:09,0.001,0.0,0.0,0.0
27/08/2022,01:23:09,0.001,0.0,0.0,0.0
27/08/2022,01:24:08,0.001,0.0,0.0,0.0
27/08/2022,01:25:08,0.000,0.0,0.0,0.0
27/08/2022,01:26:17,0.001,0.0,0.0,0.0
27/08/2022,01:27:17,0.001,0.0,0.0,0.0
27/08/2022,01:28:09,0.001,0.0,0.0,0.0
27/08/2022,01:29:17,0.001,0.0,0.0,0.0
27/08/2022,01:30:10,0.001,0.0,0.0,0.0
27/08/2022,01:31:09,0.001,0.0,0.0,0.0
27/08/2022,01:32:09,0.001,0.0,0.0,0.0
27/08/2022,01:33:09,0.001,0.0,0.0,0.0
27/08/2022,01:34:09,0.000,0.0,0.0,0.0
27/08/2022,01:35:09,0.001,0.0,0.0,0.0
27/08/2022,01:36:09,0.001,0.0,0.0,0.0
27/08/2022,01:37:09,0.001,0.0,0.0,0.0
27/08/2022,01:38:09,0.001,0.0,0.0,0.0
27/08/2022,01:39:09,0.001,0.0,0.0,0.0
27/08/2022,01:40:09,0.000,0.0,0.0,0.0
27/08/2022,01:41:09,0.001,0.0,0.0,0.0
27/08/2022,01:42:09,0.001,0.0,0.0,0.0
27/08/2022,01:43:08,0.000,0.0,0.0,0.0
27/08/2022,01:44:18,0.001,0.0,0.0,0.0
27/08/2022,01:45:09,0.001,0.0,0.0,0.0
27/08/2022,01:46:09,0.001,0.0,0.0,0.0
27/08/2022,01:47:19,0.001,0.0,0.0,0.0
27/08/2022,01:48:08,0.001,0.0,0.0,0.0
27/08/2022,01:49:10,0.002,0.0,0.0,0.0
27/08/2022,01:50:08,0.001,0.0,0.0,0.0
27/08/2022,01:51:09,0.002,0.0,0.0,0.0
27/08/2022,01:52:09,0.001,0.0,0.0,0.0
27/08/2022,01:53:09,0.002,0.0,0.0,0.0
27/08/2022,01:54:10,0.001,0.0,0.0,0.0
27/08/2022,01:55:09,0.000,0.0,0.0,0.0
27/08/2022,01:56:02,0.001,0.0,0.0,0.0
27/08/2022,01:57:10,0.002,0.0,0.0,0.0
27/08/2022,01:58:09,0.001,0.0,0.0,0.0
27/08/2022,01:59:09,0.001,0.0,0.0,0.0
27/08/2022,02:00:09,0.001,0.0,0.0,0.0
27/08/2022,02:01:09,0.000,0.0,0.0,0.0
27/08/2022,02:02:18,0.001,0.0,0.0,0.0
27/08/2022,02:03:09,0.001,0.0,0.0,0.0
27/08/2022,02:04:09,0.000,0.0,0.0,0.0
27/08/2022,02:05:09,0.002,0.0,0.0,0.0
27/08/2022,02:06:09,0.001,0.0,0.0,0.0
27/08/2022,02:07:09,0.001,0.0,0.0,0.0
27/08/2022,02:08:17,0.001,0.0,0.0,0.0
27/08/2022,02:09:09,0.001,0.0,0.0,0.0
27/08/2022,02:10:09,0.000,0.0,0.0,0.0
27/08/2022,02:11:09,0.001,0.0,0.0,0.0
27/08/2022,02:12:09,0.001,0.0,0.0,0.0
27/08/2022,02:13:09,0.001,0.0,0.0,0.0
27/08/2022,02:14:09,0.001,0.0,0.0,0.0
27/08/2022,02:15:09,0.001,0.0,0.0,0.0
27/08/2022,02:16:09,0.001,0.0,0.0,0.0
27/08/2022,02:17:09,0.001,0.0,0.0,0.0
27/08/2022,02:18:09,0.000,0.0,0.0,0.0
27/08/2022,02:19:09,0.001,0.0,0.0,0.0
27/08/2022,02:20:09,0.000,0.0,0.0,0.0
27/08/2022,02:21:09,0.001,0.0,0.0,0.0
27/08/2022,02:22:09,0.001,0.0,0.0,0.0
27/08/2022,02:23:09,0.001,0.0,0.0,0.0
27/08/2022,02:24:09,0.001,0.0,0.0,0.0
27/08/2022,02:25:09,0.000,0.0,0.0,0.0
27/08/2022,02:26:17,0.001,0.0,0.0,0.0
27/08/2022,02:27:09,0.001,0.0,0.0,0.0
27/08/2022,02:28:11,0.001,0.0,0.0,0.0
27/08/2022,02:29:09,0.001,0.0,0.0,0.0
27/08/2022,02:30:09,0.001,0.0,0.0,0.0
27/08/2022,02:31:09,0.001,0.0,0.0,0.0
27/08/2022,02:32:09,0.001,0.0,0.0,0.0
27/08/2022,02:33:09,0.001,0.0,0.0,0.0
27/08/2022,02:34:09,0.001,0.0,0.0,0.0
27/08/2022,02:35:09,0.001,0.0,0.0,0.0
27/08/2022,02:36:09,0.002,0.0,0.0,0.0
27/08/2022,02:37:09,0.002,0.0,0.0,0.0
27/08/2022,02:38:09,0.001,0.0,0.0,0.0
27/08/2022,02:39:09,0.000,0.0,0.0,0.0
27/08/2022,02:40:17,0.001,0.0,0.0,0.0
27/08/2022,02:41:09,0.001,0.0,0.0,0.0
27/08/2022,02:42:09,0.001,0.0,0.0,0.0
27/08/2022,02:43:09,0.001,0.0,0.0,0.0
27/08/2022,02:44:17,0.001,0.0,0.0,0.0
27/08/2022,02:45:09,0.001,0.0,0.0,0.0
27/08/2022,02:46:09,0.000,0.0,0.0,0.0
27/08/2022,02:47:09,0.001,0.0,0.0,0.0
27/08/2022,02:48:09,0.001,0.0,0.0,0.0
27/08/2022,02:49:09,0.001,0.0,0.0,0.0
27/08/2022,02:50:09,0.001,0.0,0.0,0.0
27/08/2022,02:51:09,0.001,0.0,0.0,0.0
27/08/2022,02:52:09,0.000,0.0,0.0,0.0
27/08/2022,02:53:17,0.001,0.0,0.0,0.0
27/08/2022,02:54:09,0.002,0.0,0.0,0.0
27/08/2022,02:55:09,0.001,0.0,0.0,0.0
27/08/2022,02:56:09,0.001,0.0,0.0,0.0
27/08/2022,02:57:09,0.001,0.0,0.0,0.0
27/08/2022,02:58:09,0.001,0.0,0.0,0.0
27/08/2022,02:59:09,0.001,0.0,0.0,0.0
27/08/2022,03:00:09,0.002,0.0,0.0,0.0
27/08/2022,03:01:09,0.001,0.0,0.0,0.0
27/08/2022,03:02:09,0.001,0.0,0.0,0.0
27/08/2022,03:03:09,0.001,0.0,0.0,0.0
27/08/2022,03:04:09,0.001,0.0,0.0,0.0
27/08/2022,03:05:09,0.001,0.0,0.0,0.0
27/08/2022,03:06:09,0.001,0.0,0.0,0.0
27/08/2022,03:07:09,0.002,0.0,0.0,0.0
27/08/2022,03:08:18,0.002,0.0,0.0,0.0
27/08/2022,03:09:07,0.002,0.0,0.0,0.0
27/08/2022,03:10:10,0.001,0.0,0.0,0.0
27/08/2022,03:11:09,0.002,0.0,0.0,0.0
27/08/2022,03:12:09,0.001,0.0,0.0,0.0
27/08/2022,03:13:09,0.001,0.0,0.0,0.0
27/08/2022,03:14:17,0.001,0.0,0.0,0.0
27/08/2022,03:15:09,0.001,0.0,0.0,0.0
27/08/2022,03:16:09,0.001,0.0,0.0,0.0
27/08/2022,03:17:09,0.001,0.0,0.0,0.0
27/08/2022,03:18:09,0.000,0.0,0.0,0.0
27/08/2022,03:19:00,0.001,0.0,0.0,0.0
27/08/2022,03:20:10,0.000,0.0,0.0,0.0
27/08/2022,03:21:09,0.000,0.0,0.0,0.0
27/08/2022,03:22:09,0.002,0.0,0.0,0.0
27/08/2022,03:23:09,0.001,0.0,0.0,0.0
27/08/2022,03:24:09,0.001,0.0,0.0,0.0
27/08/2022,03:25:09,0.001,0.0,0.0,0.0
27/08/2022,03:26:09,0.001,0.0,0.0,0.0
27/08/2022,03:27:09,0.001,0.0,0.0,0.0
27/08/2022,03:28:09,0.001,0.0,0.0,0.0
27/08/2022,03:29:17,0.001,0.0,0.0,0.0
27/08/2022,03:30:09,0.001,0.0,0.0,0.0
27/08/2022,03:31:09,0.000,0.0,0.0,0.0
27/08/2022,03:32:18,0.001,0.0,0.0,0.0
27/08/2022,03:33:09,0.001,0.0,0.0,0.0
27/08/2022,03:34:10,0.001,0.0,0.0,0.0
27/08/2022,03:35:09,0.001,0.0,0.0,0.0
27/08/2022,03:36:09,0.002,0.0,0.0,0.0
27/08/2022,03:37:09,0.001,0.0,0.0,0.0
27/08/2022,03:38:09,0.002,0.0,0.0,0.0
27/08/2022,03:39:09,0.001,0.0,0.0,0.0
27/08/2022,03:40:09,0.001,0.0,0.0,0.0
27/08/2022,03:41:09,0.001,0.0,0.0,0.0
27/08/2022,03:42:10,0.001,0.0,0.0,0.0
27/08/2022,03:43:09,0.001,0.0,0.0,0.0
27/08/2022,03:44:09,0.000,0.0,0.0,0.0
27/08/2022,03:45:09,0.001,0.0,0.0,0.0
27/08/2022,03:46:09,0.001,0.0,0.0,0.0
27/08/2022,03:47:09,0.000,0.0,0.0,0.0
27/08/2022,03:48:09,0.001,0.0,0.0,0.0
27/08/2022,03:49:09,0.001,0.0,0.0,0.0
27/08/2022,03:50:17,0.001,0.0,0.0,0.0
27/08/2022,03:51:09,0.000,0.0,0.0,0.0
27/08/2022,03:52:09,0.001,0.0,0.0,0.0
27/08/2022,03:53:18,0.001,0.0,0.0,0.0
27/08/2022,03:54:08,0.002,0.0,0.0,0.0
27/08/2022,03:55:09,0.001,0.0,0.0,0.0
27/08/2022,03:56:09,0.001,0.0,0.0,0.0
27/08/2022,03:57:09,0.001,0.0,0.0,0.0
27/08/2022,03:58:09,0.000,0.0,0.0,0.0
27/08/2022,03:59:09,0.001,0.0,0.0,0.0
27/08/2022,04:00:09,0.001,0.0,0.0,0.0
27/08/2022,04:01:09,0.001,0.0,0.0,0.0
27/08/2022,04:02:10,0.002,0.0,0.0,0.0
27/08/2022,04:03:09,0.001,0.0,0.0,0.0
27/08/2022,04:04:09,0.001,0.0,0.0,0.0
27/08/2022,04:05:09,0.002,0.0,0.0,0.0
27/08/2022,04:06:18,0.000,0.0,0.0,0.0
27/08/2022,04:07:09,0.001,0.0,0.0,0.0
27/08/2022,04:08:09,0.001,0.0,0.0,0.0
27/08/2022,04:09:09,0.001,0.0,0.0,0.0
27/08/2022,04:10:09,0.002,0.0,0.0,0.0
27/08/2022,04:11:09,0.001,0.0,0.0,0.0
27/08/2022,04:12:09,0.001,0.0,0.0,0.0
27/08/2022,04:13:09,0.001,0.0,0.0,0.0
27/08/2022,04:14:09,0.001,0.0,0.0,0.0
27/08/2022,04:15:09,0.001,0.0,0.0,0.0
27/08/2022,04:16:09,0.001,0.0,0.0,0.0
27/08/2022,04:17:10,0.002,0.0,0.0,0.0
27/08/2022,04:18:09,0.001,0.0,0.0,0.0
27/08/2022,04:19:09,0.001,0.0,0.0,0.0
27/08/2022,04:20:10,0.002,0.0,0.0,0.0
27/08/2022,04:21:09,0.002,0.0,0.0,0.0
27/08/2022,04:22:09,0.000,0.0,0.0,0.0
27/08/2022,04:23:09,0.001,0.0,0.0,0.0
27/08/2022,04:24:09,0.001,0.0,0.0,0.0
27/08/2022,04:25:10,0.002,0.0,0.0,0.0
27/08/2022,04:26:09,0.001,0.0,0.0,0.0
27/08/2022,04:27:18,0.001,0.0,0.0,0.0
27/08/2022,04:28:09,0.001,0.0,0.0,0.0
27/08/2022,04:29:09,0.001,0.0,0.0,0.0
27/08/2022,04:30:09,0.001,0.0,0.0,0.0
27/08/2022,04:31:09,0.001,0.0,0.0,0.0
27/08/2022,04:32:09,0.001,0.0,0.0,0.0
27/08/2022,04:33:09,0.001,0.0,0.0,0.0
27/08/2022,04:34:26,0.001,0.0,0.0,0.0
27/08/2022,04:36:10,0.001,0.0,0.0,0.0
27/08/2022,04:37:10,0.002,0.0,0.0,0.0
27/08/2022,04:38:09,0.001,0.0,0.0,0.0
27/08/2022,04:39:09,0.000,0.0,0.0,0.0
27/08/2022,04:40:09,0.001,0.0,0.0,0.0
27/08/2022,04:41:09,0.001,0.0,0.0,0.0
27/08/2022,04:42:09,0.001,0.0,0.0,0.0
27/08/2022,04:43:09,0.001,0.0,0.0,0.0
27/08/2022,04:44:09,0.001,0.0,0.0,0.0
27/08/2022,04:45:09,0.001,0.0,0.0,0.0
27/08/2022,04:46:09,0.002,0.0,0.0,0.0
27/08/2022,04:47:09,0.001,0.0,0.0,0.0
27/08/2022,04:48:17,0.002,0.0,0.0,0.0
27/08/2022,04:49:09,0.002,0.0,0.0,0.0
27/08/2022,04:50:09,0.001,0.0,0.0,0.0
27/08/2022,04:51:18,0.001,0.0,0.0,0.0
27/08/2022,04:52:09,0.001,0.0,0.0,0.0
27/08/2022,04:53:09,0.002,0.0,0.0,0.0
27/08/2022,04:54:09,0.002,0.0,0.0,0.0
27/08/2022,04:55:09,0.002,0.0,0.0,0.0
27/08/2022,04:56:09,0.002,0.0,0.0,0.0
27/08/2022,04:57:09,0.001,0.0,0.0,0.0
27/08/2022,04:58:09,0.001,0.0,0.0,0.0
27/08/2022,04:59:09,0.002,0.0,0.0,0.0
27/08/2022,05:00:09,0.003,0.0,0.0,0.0
27/08/2022,05:01:09,0.002,0.0,0.0,0.0
27/08/2022,05:02:09,0.001,0.0,0.0,0.0
27/08/2022,05:03:09,0.002,0.0,0.0,0.0
27/08/2022,05:04:09,0.002,0.0,0.0,0.0
27/08/2022,05:05:09,0.003,0.0,0.0,0.0
27/08/2022,05:06:17,0.003,0.0,0.0,0.0
27/08/2022,05:07:09,0.002,0.0,0.0,0.0
27/08/2022,05:08:09,0.001,0.0,0.0,0.0
27/08/2022,05:09:09,0.002,0.0,0.0,0.0
27/08/2022,05:10:09,0.002,0.0,0.0,0.0
27/08/2022,05:11:09,0.002,0.0,0.0,0.0
27/08/2022,05:12:18,0.003,0.0,0.0,0.0
27/08/2022,05:13:09,0.004,0.0,0.0,0.0
27/08/2022,05:14:10,0.003,0.0,0.0,0.0
27/08/2022,05:15:09,0.004,0.0,0.0,0.0
27/08/2022,05:16:11,0.003,0.0,0.0,0.0
27/08/2022,05:17:09,0.004,0.0,0.0,0.0
27/08/2022,05:18:09,0.003,0.0,0.0,0.0
27/08/2022,05:19:10,0.004,0.0,0.0,0.0
27/08/2022,05:20:09,0.004,0.0,0.0,0.0
27/08/2022,05:21:10,0.004,0.0,0.0,0.0
27/08/2022,05:22:09,0.004,0.0,0.0,0.0
27/08/2022,05:23:09,0.004,0.0,0.0,0.0
27/08/2022,05:24:18,0.005,0.0,0.0,0.0
27/08/2022,05:25:08,0.005,0.0,0.0,0.0
27/08/2022,05:26:10,0.005,0.0,0.0,0.0
27/08/2022,05:27:09,0.005,0.0,0.0,0.0
27/08/2022,05:28:09,0.006,0.0,0.0,0.0
27/08/2022,05:29:09,0.006,0.0,0.0,0.0
27/08/2022,05:30:09,0.007,0.0,0.0,0.0
27/08/2022,05:31:09,0.008,0.0,0.0,0.0
27/08/2022,05:32:09,0.007,0.0,0.0,0.0
27/08/2022,05:33:09,0.007,0.0,0.0,0.0
27/08/2022,05:34:09,0.008,0.0,0.001,0.001
27/08/2022,05:35:10,0.008,0.0,0.001,0.0
27/08/2022,05:36:09,0.008,0.0,0.001,0.0
27/08/2022,05:37:17,0.009,0.0,0.001,0.0
27/08/2022,05:38:09,0.009,0.0,0.001,0.0
27/08/2022,05:39:09,0.010,0.0,0.001,0.0
27/08/2022,05:40:10,0.009,0.0,0.001,0.0
27/08/2022,05:41:16,0.009,0.0,0.002,0.001
27/08/2022,05:42:09,0.010,0.0,0.002,0.0
27/08/2022,05:43:09,0.011,0.0,0.002,0.0
27/08/2022,05:44:09,0.011,0.0,0.002,0.0
27/08/2022,05:45:11,0.013,0.0,0.002,0.0
27/08/2022,05:46:09,0.013,0.0,0.003,0.001
27/08/2022,05:47:09,0.013,0.0,0.003,0.0
27/08/2022,05:48:10,0.014,0.0,0.003,0.0
27/08/2022,05:49:09,0.015,0.0,0.003,0.0
27/08/2022,05:50:09,0.014,0.0,0.003,0.0
27/08/2022,05:51:09,0.016,0.0,0.004,0.001
27/08/2022,05:52:09,0.017,0.0,0.004,0.0
27/08/2022,05:53:09,0.017,0.0,0.004,0.0
27/08/2022,05:54:09,0.017,0.0,0.005,0.001
27/08/2022,05:55:09,0.018,0.0,0.005,0.0
27/08/2022,05:56:09,0.018,0.0,0.005,0.0
27/08/2022,05:57:09,0.019,0.0,0.005,0.0
27/08/2022,05:58:18,0.020,0.0,0.006,0.001
27/08/2022,05:59:09,0.021,0.0,0.006,0.0
27/08/2022,06:00:10,0.021,0.0,0.006,0.0
27/08/2022,06:01:09,0.022,0.0,0.007,0.001
27/08/2022,06:02:09,0.023,0.0,0.007,0.0
27/08/2022,06:03:09,0.024,0.0,0.008,0.001
27/08/2022,06:04:09,0.024,0.0,0.008,0.0
27/08/2022,06:05:09,0.025,0.0,0.008,0.0
27/08/2022,06:06:09,0.026,0.0,0.009,0.001
27/08/2022,06:07:09,0.028,0.0,0.009,0.0
27/08/2022,06:08:10,0.028,0.0,0.01,0.001
27/08/2022,06:09:10,0.029,0.0,0.01,0.0
27/08/2022,06:10:09,0.030,0.0,0.011,0.001
27/08/2022,06:11:18,0.031,0.0,0.011,0.0
27/08/2022,06:12:09,0.032,0.0,0.012,0.001
27/08/2022,06:13:10,0.033,0.0,0.012,0.0
27/08/2022,06:14:09,0.034,0.0,0.013,0.001
27/08/2022,06:15:10,0.035,0.0,0.013,0.0
27/08/2022,06:16:17,0.036,0.0,0.014,0.001
27/08/2022,06:17:09,0.037,0.0,0.015,0.001
27/08/2022,06:18:09,0.039,0.0,0.015,0.0
27/08/2022,06:19:11,0.039,0.0,0.016,0.001
27/08/2022,06:20:09,0.040,0.0,0.017,0.001
27/08/2022,06:21:09,0.041,0.0,0.017,0.0
27/08/2022,06:22:10,0.043,0.0,0.018,0.001
27/08/2022,06:23:09,0.044,0.0,0.019,0.001
27/08/2022,06:24:09,0.045,0.0,0.019,0.0
27/08/2022,06:25:10,0.046,0.0,0.02,0.001
27/08/2022,06:26:22,0.048,0.0,0.021,0.001
27/08/2022,06:28:10,0.050,0.0,0.023,0.002
27/08/2022,06:29:18,0.052,0.0,0.024,0.001
27/08/2022,06:30:09,0.054,0.0,0.024,0.0
27/08/2022,06:31:09,0.055,0.0,0.025,0.001
27/08/2022,06:32:18,0.057,0.0,0.026,0.001
27/08/2022,06:33:10,0.058,0.0,0.027,0.001
27/08/2022,06:34:10,0.059,0.0,0.028,0.001
27/08/2022,06:35:09,0.061,0.0,0.029,0.001
27/08/2022,06:36:09,0.063,0.0,0.03,0.001
27/08/2022,06:37:09,0.064,0.0,0.031,0.001
27/08/2022,06:38:09,0.066,0.0,0.032,0.001
27/08/2022,06:39:09,0.067,0.0,0.033,0.001
27/08/2022,06:40:10,0.068,0.0,0.035,0.002
27/08/2022,06:41:09,0.071,0.0,0.036,0.001
27/08/2022,06:42:10,0.072,0.0,0.037,0.001
27/08/2022,06:43:10,0.075,0.0,0.038,0.001
27/08/2022,06:44:10,0.076,0.0,0.039,0.001
27/08/2022,06:45:10,0.077,0.0,0.041,0.002
27/08/2022,06:46:10,0.080,0.0,0.042,0.001
27/08/2022,06:47:09,0.082,0.0,0.043,0.001
27/08/2022,06:48:09,0.084,0.0,0.045,0.002
27/08/2022,06:49:09,0.084,0.0,0.046,0.001
27/08/2022,06:50:18,0.088,0.0,0.048,0.002
27/08/2022,06:51:09,0.090,0.0,0.049,0.001
27/08/2022,06:52:09,0.092,0.0,0.051,0.002
27/08/2022,06:53:09,0.094,0.0,0.052,0.001
27/08/2022,06:54:09,0.096,0.0,0.054,0.002
27/08/2022,06:55:10,0.098,0.0,0.055,0.001
27/08/2022,06:56:09,0.101,0.0,0.057,0.002
27/08/2022,06:57:09,0.103,0.0,0.059,0.002
27/08/2022,06:58:09,0.105,0.0,0.06,0.001
27/08/2022,06:59:09,0.107,0.0,0.062,0.002
27/08/2022,07:00:09,0.110,0.0,0.064,0.002
27/08/2022,07:01:09,0.113,0.0,0.066,0.002
27/08/2022,07:02:09,0.115,0.0,0.068,0.002
27/08/2022,07:03:10,0.118,0.0,0.07,0.002
27/08/2022,07:04:09,0.121,0.0,0.072,0.002
27/08/2022,07:05:18,0.124,0.0,0.074,0.002
27/08/2022,07:06:18,0.128,0.0,0.076,0.002
27/08/2022,07:07:09,0.128,0.0,0.078,0.002
27/08/2022,07:08:10,0.132,0.0,0.08,0.002
27/08/2022,07:09:10,0.135,0.0,0.082,0.002
27/08/2022,07:10:09,0.137,0.0,0.085,0.003
27/08/2022,07:11:10,0.140,0.0,0.087,0.002
27/08/2022,07:12:09,0.143,0.0,0.089,0.002
27/08/2022,07:13:10,0.146,0.0,0.092,0.003
27/08/2022,07:14:10,0.149,0.0,0.094,0.002
27/08/2022,07:15:10,0.151,0.0,0.097,0.003
27/08/2022,07:16:09,0.155,0.0,0.099,0.002
27/08/2022,07:17:09,0.157,0.0,0.102,0.003
27/08/2022,07:18:11,0.161,0.0,0.105,0.003
27/08/2022,07:19:09,0.165,0.0,0.107,0.002
27/08/2022,07:20:10,0.169,0.0,0.11,0.003
27/08/2022,07:21:18,0.171,0.0,0.113,0.003
27/08/2022,07:22:09,0.174,0.0,0.116,0.003
27/08/2022,07:23:10,0.178,0.0,0.119,0.003
27/08/2022,07:24:10,0.181,0.0,0.122,0.003
27/08/2022,07:25:10,0.185,0.0,0.125,0.003
27/08/2022,07:26:09,0.189,0.0,0.128,0.003
27/08/2022,07:27:10,0.192,0.0,0.131,0.003
27/08/2022,07:28:09,0.196,0.0,0.134,0.003
27/08/2022,07:29:10,0.200,0.0,0.137,0.003
27/08/2022,07:30:10,0.203,0.0,0.141,0.004
27/08/2022,07:31:09,0.206,0.0,0.144,0.003
27/08/2022,07:32:26,0.211,0.0,0.149,0.005
27/08/2022,07:34:10,0.218,1.0,0.155,0.006
27/08/2022,07:35:10,0.223,1.0,0.159,0.004
27/08/2022,07:36:19,0.227,1.0,0.163,0.004
27/08/2022,07:37:08,0.230,1.0,0.166,0.003
27/08/2022,07:38:10,0.233,1.0,0.17,0.004
27/08/2022,07:39:10,0.238,1.0,0.174,0.004
27/08/2022,07:40:10,0.242,1.0,0.178,0.004
27/08/2022,07:41:09,0.245,1.0,0.182,0.004
27/08/2022,07:42:12,0.251,1.0,0.186,0.004
27/08/2022,07:43:10,0.255,1.0,0.19,0.004
27/08/2022,07:44:10,0.259,1.0,0.195,0.005
27/08/2022,07:45:09,0.262,1.0,0.199,0.004
27/08/2022,07:46:10,0.267,1.0,0.203,0.004
27/08/2022,07:47:11,0.271,1.0,0.208,0.005
27/08/2022,07:48:10,0.275,1.0,0.212,0.004
27/08/2022,07:49:10,0.279,1.0,0.217,0.005
27/08/2022,07:50:09,0.284,1.0,0.222,0.005
27/08/2022,07:51:10,0.288,1.0,0.227,0.005
27/08/2022,07:52:10,0.292,1.0,0.231,0.004
27/08/2022,07:53:10,0.297,1.0,0.236,0.005
27/08/2022,07:54:10,0.302,1.0,0.241,0.005
27/08/2022,07:55:09,0.306,1.0,0.246,0.005
27/08/2022,07:56:10,0.311,1.0,0.251,0.005
27/08/2022,07:57:10,0.316,1.0,0.257,0.006
27/08/2022,07:58:10,0.321,1.0,0.262,0.005
27/08/2022,07:59:10,0.326,1.0,0.267,0.005
27/08/2022,08:00:10,0.331,1.0,0.273,0.006
27/08/2022,08:01:09,0.336,1.0,0.278,0.005
27/08/2022,08:02:11,0.340,1.0,0.284,0.006
27/08/2022,08:03:10,0.345,1.0,0.29,0.006
27/08/2022,08:04:09,0.349,1.0,0.296,0.006
27/08/2022,08:05:10,0.354,1.0,0.301,0.005
27/08/2022,08:06:09,0.358,1.0,0.307,0.006
27/08/2022,08:07:10,0.364,1.0,0.313,0.006
27/08/2022,08:08:10,0.367,1.0,0.32,0.007
27/08/2022,08:09:10,0.374,1.0,0.326,0.006
27/08/2022,08:10:11,0.379,1.0,0.332,0.006
27/08/2022,08:11:09,0.384,1.0,0.338,0.006
27/08/2022,08:12:09,0.389,1.0,0.345,0.007
27/08/2022,08:13:10,0.394,1.0,0.351,0.006
27/08/2022,08:14:10,0.399,1.0,0.358,0.007
27/08/2022,08:15:09,0.403,1.0,0.365,0.007
27/08/2022,08:16:10,0.408,1.0,0.371,0.006
27/08/2022,08:17:09,0.412,1.0,0.378,0.007
27/08/2022,08:18:10,0.414,1.0,0.385,0.007
27/08/2022,08:19:09,0.419,1.0,0.392,0.007
27/08/2022,08:20:11,0.423,1.0,0.399,0.007
27/08/2022,08:21:09,0.427,1.0,0.406,0.007
27/08/2022,08:22:18,0.437,1.0,0.414,0.008
27/08/2022,08:23:10,0.444,1.0,0.421,0.007
27/08/2022,08:24:18,0.453,1.0,0.429,0.008
27/08/2022,08:25:10,0.458,1.0,0.436,0.007
27/08/2022,08:26:10,0.465,1.0,0.443,0.007
27/08/2022,08:27:09,0.474,1.0,0.451,0.008
27/08/2022,08:28:10,0.481,1.0,0.459,0.008
27/08/2022,08:29:10,0.487,1.0,0.467,0.008
27/08/2022,08:30:10,0.488,1.0,0.475,0.008
27/08/2022,08:31:10,0.489,1.0,0.484,0.009
27/08/2022,08:32:09,0.493,1.0,0.492,0.008
27/08/2022,08:33:10,0.490,1.0,0.5,0.008
27/08/2022,08:34:18,0.497,1.0,0.509,0.009
27/08/2022,08:35:03,0.506,1.0,0.515,0.006
27/08/2022,08:36:10,0.514,1.0,0.525,0.01
27/08/2022,08:37:10,0.532,1.0,0.534,0.009
27/08/2022,08:38:09,0.539,1.0,0.543,0.009
27/08/2022,08:39:09,0.553,1.0,0.552,0.009
27/08/2022,08:40:09,0.560,1.0,0.561,0.009
27/08/2022,08:41:09,0.567,1.0,0.57,0.009
27/08/2022,08:42:09,0.571,1.0,0.58,0.01
27/08/2022,08:43:09,0.572,1.0,0.589,0.009
27/08/2022,08:44:10,0.578,1.0,0.599,0.01
27/08/2022,08:45:09,0.557,1.0,0.608,0.009
27/08/2022,08:46:09,0.579,1.0,0.618,0.01
27/08/2022,08:47:11,0.570,1.0,0.628,0.01
27/08/2022,08:48:09,0.557,1.0,0.637,0.009
27/08/2022,08:49:10,0.560,1.0,0.646,0.009
27/08/2022,08:50:09,0.554,1.0,0.655,0.009
27/08/2022,08:51:10,0.558,1.0,0.665,0.01
27/08/2022,08:52:09,0.572,1.0,0.674,0.009
27/08/2022,08:53:10,0.571,1.0,0.684,0.01
27/08/2022,08:54:09,0.591,1.0,0.693,0.009
27/08/2022,08:55:18,0.615,1.0,0.705,0.012
27/08/2022,08:56:10,0.621,1.0,0.713,0.008
27/08/2022,08:57:17,0.622,1.0,0.725,0.012
27/08/2022,08:58:09,0.607,1.0,0.734,0.009
27/08/2022,08:59:10,0.585,1.0,0.744,0.01
27/08/2022,09:00:09,0.585,1.0,0.754,0.01
27/08/2022,09:01:09,0.591,1.0,0.764,0.01
27/08/2022,09:02:10,0.601,1.0,0.774,0.01
27/08/2022,09:03:10,0.586,1.0,0.784,0.01
27/08/2022,09:04:10,0.589,1.0,0.793,0.009
27/08/2022,09:05:03,0.586,1.0,0.802,0.009
27/08/2022,09:06:10,0.584,1.0,0.813,0.011
27/08/2022,09:07:10,0.581,1.0,0.823,0.01
27/08/2022,09:08:09,0.572,1.0,0.832,0.009
27/08/2022,09:09:09,0.567,1.0,0.842,0.01
27/08/2022,09:10:10,0.565,1.0,0.851,0.009
27/08/2022,09:11:09,0.565,1.0,0.861,0.01
27/08/2022,09:12:10,0.570,1.0,0.87,0.009
27/08/2022,09:13:10,0.573,1.0,0.88,0.01
27/08/2022,09:14:10,0.580,1.0,0.889,0.009
27/08/2022,09:15:10,0.585,1.0,0.899,0.01
27/08/2022,09:16:10,0.596,1.0,0.909,0.01
27/08/2022,09:17:09,0.605,1.0,0.919,0.01
27/08/2022,09:18:18,0.613,1.0,0.93,0.011
27/08/2022,09:19:10,0.621,1.0,0.939,0.009
27/08/2022,09:20:10,0.637,1.0,0.95,0.011
27/08/2022,09:21:09,0.667,2.0,0.961,0.011
27/08/2022,09:22:10,0.649,1.0,0.972,0.011
27/08/2022,09:23:09,0.655,2.0,0.982,0.01
27/08/2022,09:24:10,0.662,2.0,0.993,0.011
27/08/2022,09:25:10,0.673,2.0,1.004,0.011
27/08/2022,09:26:10,0.705,2.0,1.016,0.012
27/08/2022,09:27:10,0.842,2.0,1.029,0.013
27/08/2022,09:28:09,0.868,2.0,1.043,0.014
27/08/2022,09:29:10,0.885,2.0,1.058,0.015
27/08/2022,09:30:09,0.893,2.0,1.073,0.015
27/08/2022,09:31:10,0.903,2.0,1.088,0.015
27/08/2022,09:32:10,0.914,2.0,1.103,0.015
27/08/2022,09:33:18,0.920,2.0,1.12,0.017
27/08/2022,09:34:09,0.927,2.0,1.134,0.014
27/08/2022,09:35:10,0.934,2.0,1.149,0.015
27/08/2022,09:36:10,0.942,2.0,1.165,0.016
27/08/2022,09:37:09,0.942,2.0,1.181,0.016
27/08/2022,09:38:10,0.950,2.0,1.196,0.015
27/08/2022,09:39:10,0.939,2.0,1.212,0.016
27/08/2022,09:40:10,0.906,2.0,1.228,0.016
27/08/2022,09:41:09,0.957,2.0,1.243,0.015
27/08/2022,09:42:10,0.980,2.0,1.259,0.016
27/08/2022,09:43:09,0.986,2.0,1.276,0.017
27/08/2022,09:44:12,1.004,2.0,1.293,0.017
27/08/2022,09:45:09,1.019,2.0,1.309,0.016
27/08/2022,09:46:11,1.018,2.0,1.326,0.017
27/08/2022,09:47:18,1.032,2.0,1.345,0.019
27/08/2022,09:48:10,1.038,2.0,1.36,0.015
27/08/2022,09:49:09,1.047,2.0,1.378,0.018
27/08/2022,09:50:10,1.055,2.0,1.395,0.017
27/08/2022,09:51:18,1.062,2.0,1.415,0.02
27/08/2022,09:52:07,1.051,2.0,1.43,0.015
27/08/2022,09:53:10,1.016,2.0,1.448,0.018
27/08/2022,09:54:18,1.064,2.0,1.467,0.019
27/08/2022,09:55:10,1.071,2.0,1.483,0.016
27/08/2022,09:56:10,1.087,2.0,1.501,0.018
27/08/2022,09:57:09,1.099,3.0,1.519,0.018
27/08/2022,09:58:10,1.109,3.0,1.537,0.018
27/08/2022,09:59:10,1.113,3.0,1.556,0.019
27/08/2022,10:00:10,1.107,3.0,1.574,0.018
27/08/2022,10:01:10,1.112,3.0,1.593,0.019
27/08/2022,10:02:10,1.131,3.0,1.612,0.019
27/08/2022,10:03:10,1.138,3.0,1.631,0.019
27/08/2022,10:04:10,1.150,3.0,1.65,0.019
27/08/2022,10:05:10,1.162,3.0,1.669,0.019
27/08/2022,10:06:10,1.160,3.0,1.688,0.019
27/08/2022,10:07:10,1.163,3.0,1.708,0.02
27/08/2022,10:08:10,1.167,3.0,1.727,0.019
27/08/2022,10:09:18,1.168,3.0,1.749,0.022
27/08/2022,10:10:10,1.179,3.0,1.766,0.017
27/08/2022,10:11:10,1.199,3.0,1.786,0.02
27/08/2022,10:12:25,1.211,3.0,1.811,0.025
27/08/2022,10:14:11,1.220,3.0,1.846,0.035
27/08/2022,10:15:09,1.231,3.0,1.867,0.021
27/08/2022,10:16:09,1.237,3.0,1.887,0.02
27/08/2022,10:17:10,1.249,3.0,1.908,0.021
27/08/2022,10:18:10,1.256,3.0,1.929,0.021